Flag for United Kingdom Weather past 2 weeks in London, England, United Kingdom

Now
48 °F

Scattered clouds.


Feels Like: 43 °F
Forecast: N/A
Wind: 14 mph from Northwest

Location: Northolt

Current Time: Dec 20, 2014 at 3:51:14 PM

Latest Report: Dec 20, 2014 at 2:50 PM


Visibility: N/A

Pressure: 30.30 "Hg

Humidity: 66%

Dew point: 37 °F

Location of LondonLocation

Historic Weather in London — Graph

°F

London temperature yesterday

Maximum temperature yesterday: 55 °F (at 12:50 AM)
Minimum temperature yesterday: 41 °F (at 9:50 PM)
Average temperature yesterday: 48 °F

Past Weeks' High & Low Weather Summary

 TemperatureHumidityPressure
High57 °F (Dec 18, 11:50 AM)100% (Dec 13, 8:50 AM)30.39 "Hg (Dec 13, 8:50 AM)
Low27 °F (Dec 14, 12:50 AM)50% (Dec 10, 12:50 PM)29.27 "Hg (Dec 12, 4:50 AM)
Average43 °F82%29.94 "Hg
* Reported Dec 5 2:50 PM — Dec 20 2:50 PM, London, Weather by CustomWeather, © 2014

Note: Actual official high and low records may vary slightly from our data, if they occured in-between our weather recording intervals... More about our weather records

Advertising

London weather history for previous 24 hours

 ConditionsComfort  
Time TempWeatherWind HumidityBarometerVisibility
2:50 PM
Dec 20
48 °FScattered clouds.14 mph66%30.30 "HgN/A
1:50 PM48 °FScattered clouds.17 mph66%30.30 "HgN/A
12:50 PM48 °FPassing clouds.18 mph66%30.27 "HgN/A
11:50 AM48 °FScattered clouds.17 mph66%30.27 "HgN/A
10:50 AM48 °FSunny.14 mph66%30.27 "HgN/A
9:50 AM45 °FPartly sunny.13 mph76%30.27 "HgN/A
8:50 AM45 °FPartly sunny.14 mph76%30.24 "HgN/A
7:50 AM45 °FPassing clouds.12 mph76%30.24 "HgN/A
6:50 AM43 °FPartly cloudy.8 mph76%30.24 "HgN/A
5:50 AM43 °FPassing clouds.9 mph81%30.24 "HgN/A
4:50 AM41 °FPassing clouds.8 mph87%30.21 "HgN/A
3:50 AM41 °FPassing clouds.8 mph87%30.21 "HgN/A
2:50 AM39 °FPassing clouds.7 mph87%30.21 "Hg5 mi
1:50 AM39 °FPassing clouds.8 mph87%30.21 "Hg4 mi
12:50 AM39 °FClear.9 mph87%30.21 "Hg3 mi
11:50 PM
Dec 19
41 °FClear.8 mph81%30.21 "HgN/A
10:50 PM41 °FClear.9 mph81%30.21 "HgN/A
9:50 PM41 °FClear.7 mph81%30.18 "Hg6 mi
8:50 PM43 °FClear.8 mph76%30.18 "HgN/A
7:50 PM43 °FClear.8 mph76%30.15 "HgN/A
6:50 PM43 °FClear.8 mph76%30.12 "HgN/A
5:50 PM45 °FClear.13 mph71%30.09 "HgN/A
4:50 PM45 °FClear.9 mph71%30.09 "HgN/A
3:50 PM46 °FPassing clouds.15 mph66%30.04 "HgN/A
Weather by CustomWeather, © 2014

See weather overviewHow to use our weather pages